Dubrovnik, Croatia

1:29 AM CET on December 14, 2017 (GMT +0100)
Cilipi

Weather History for LDDU - December, 2017

Change the Weather History Date:

Wednesday, December 6, 2017

  Actual Average (LYTV) Record (LYTV)
Temperature  
Mean Temperature 46 °F -  
Max Temperature 55 °F 56 °F 62 °F (2006)
Min Temperature 38 °F 39 °F 29 °F (2016)
Degree Days  
Heating Degree Days 18    
Moisture  
Dew Point 30 °F    
Average Humidity 50    
Maximum Humidity 81    
Minimum Humidity 28    
Precipitation  
Precipitation 0.00 in - - ()
Sea Level Pressure  
Sea Level Pressure 30.47 in    
Wind  
Wind Speed 10 mph ()    
Max Wind Speed 18 mph    
Max Gust Speed -    
Visibility 19.0 miles    
Events      
Averages and records for this station are not official NWS values.
T = Trace of Precipitation, MM = Missing Value Source: Averaged Metar Reports

Daily Weather History Graph

Daily Weather History Graph

Search for Another Location

Airport or City:

Trip Planner

Search our weather history database for the weather conditions in past years. The results will help you decide how hot, cold, wet, or windy it might be!

Date:

Astronomy

Dec. 06, 2017 Rise Set
Actual Time 7:02 AM CET 4:13 PM CET
Civil Twilight 6:30 AM CET 4:45 PM CET
Nautical Twilight 5:55 AM CET 5:20 PM CET
Astronomical Twilight 5:21 AM CET 5:54 PM CET
Moon 7:32 PM CET (12/6) 9:35 AM CET (12/6)
Length of Visible Light 10h 15m
Length of Day
9h 11m
Waning Gibbous, 89% of the Moon is Illuminated
Dec 6
Waning Gibbous
Dec 10
Last Quarter
Dec 18
New
Dec 26
First Quarter
Jan 2
Full

Hourly Weather History & Observations

Time (CET) Temp. Windchill Dew Point Humidity Pressure Visibility Wind Dir Wind Speed Gust Speed Precip Events Conditions
12:00 AM 42.8 °F 37.0 °F 24.8 °F 49% 30.51 in - North 10.4 mph - N/A   Clear
12:30 AM 41.0 °F 33.9 °F 24.8 °F 53% 30.48 in - NNE 12.7 mph - N/A   Clear
1:00 AM 42 °F - 25 °F 38% 30.51 in 19 mi North 11.2 mph - -   Clear
1:30 AM 42.8 °F 34.8 °F 26.6 °F 53% 30.48 in - North 17.3 mph - N/A   Clear
2:30 AM 42.8 °F 34.8 °F 26.6 °F 53% 30.48 in - NNE 17.3 mph - N/A   Clear
3:00 AM 42.8 °F 35.1 °F 26.6 °F 53% 30.48 in - North 16.1 mph - N/A   Clear
3:30 AM 42.8 °F 34.5 °F 26.6 °F 53% 30.48 in - NNE 18.4 mph - N/A   Clear
4:00 AM 44 °F - 27 °F 39% 30.50 in 19 mi North 15.7 mph - -  
4:00 AM 44.6 °F 37.2 °F 26.6 °F 49% 30.48 in - North 17.3 mph - N/A   Clear
4:30 AM 44.6 °F 37.8 °F 26.6 °F 49% 30.48 in - North 15.0 mph - N/A   Clear
5:00 AM 44.6 °F 38.1 °F 28.4 °F 53% 30.48 in - North 13.8 mph - N/A   Clear
5:30 AM 46.4 °F 39.2 °F 28.4 °F 50% 30.48 in - NNE 18.4 mph - N/A   Clear
6:00 AM 44.6 °F 37.8 °F 28.4 °F 53% 30.48 in - NNE 15.0 mph - N/A   Clear
6:30 AM 44.6 °F 39.2 °F 28.4 °F 53% 30.48 in - North 10.4 mph - N/A   Clear
7:00 AM 46 °F - 28 °F 37% 30.50 in 19 mi North 13.4 mph - -  
7:00 AM 46.4 °F 40.7 °F 28.4 °F 50% 30.48 in - North 12.7 mph - N/A   Clear
7:30 AM 46.4 °F 41.5 °F 28.4 °F 50% 30.48 in - North 10.4 mph - N/A   Clear
8:00 AM 48.2 °F - 28.4 °F 46% 30.48 in - NNE 10.4 mph - N/A   Clear
8:30 AM 48.2 °F - 28.4 °F 46% 30.48 in - NNE 11.5 mph - N/A   Clear
9:00 AM 50.0 °F - 28.4 °F 43% 30.48 in - North 5.8 mph - N/A   Clear
9:30 AM 50.0 °F - 30.2 °F 47% 30.51 in - WNW 8.1 mph - N/A   Clear
10:00 AM 52 °F - 29 °F 29% 30.51 in 19 mi West 6.7 mph - -  
10:00 AM 51.8 °F - 30.2 °F 44% 30.48 in - West 5.8 mph - N/A   Clear
10:30 AM 53.6 °F - 30.2 °F 41% 30.51 in - Variable 6.9 mph - N/A   Clear
11:00 AM 53.6 °F - 28.4 °F 38% 30.48 in - WNW 8.1 mph - N/A   Clear
11:30 AM 53.6 °F - 32.0 °F 44% 30.48 in - West 5.8 mph - N/A   Clear
12:00 PM 53.6 °F - 30.2 °F 41% 30.48 in - West 8.1 mph - N/A   Clear
12:30 PM 53.6 °F - 32.0 °F 44% 30.48 in - WNW 6.9 mph - N/A   Clear
1:00 PM 54 °F - 31 °F 28% 30.48 in 19 mi WNW 6.7 mph - -  
1:00 PM 55.4 °F - 32.0 °F 41% 30.45 in - WNW 5.8 mph - N/A   Clear
1:30 PM 53.6 °F - 32.0 °F 44% 30.45 in - Variable 9.2 mph - N/A   Clear
2:00 PM 53.6 °F - 35.6 °F 51% 30.45 in - WNW 10.4 mph - N/A   Clear
2:30 PM 53.6 °F - 35.6 °F 51% 30.45 in - WNW 8.1 mph - N/A   Clear
3:00 PM 53.6 °F - 35.6 °F 51% 30.45 in - WNW 8.1 mph - N/A   Clear
3:30 PM 51.8 °F - 37.4 °F 58% 30.45 in - WNW 8.1 mph - N/A   Clear
4:00 PM 51 °F - 36 °F 45% 30.46 in 19 mi WNW 6.7 mph - -  
4:00 PM 50.0 °F - 35.6 °F 58% 30.45 in - WNW 6.9 mph - N/A   Clear
4:30 PM 50.0 °F - 35.6 °F 58% 30.45 in - WNW 5.8 mph - N/A   Clear
5:00 PM 50.0 °F - 32.0 °F 50% 30.45 in - WNW 6.9 mph - N/A   Clear
5:30 PM 48.2 °F - 32.0 °F 54% 30.45 in - NW 5.8 mph - N/A   Clear
6:00 PM 46.4 °F 45.2 °F 32.0 °F 57% 30.45 in - NNE 3.5 mph - N/A   Clear
6:30 PM 48.2 °F - 32.0 °F 54% 30.45 in - North 6.9 mph - N/A   Clear
7:00 PM 47 °F - 30 °F 39% 30.48 in 19 mi NNE 4.5 mph - -  
7:00 PM 48.2 °F - 30.2 °F 50% 30.45 in - NNE 5.8 mph - N/A   Clear
7:30 PM 46.4 °F 42.4 °F 28.4 °F 50% 30.45 in - NNE 8.1 mph - N/A   Clear
8:00 PM 48.2 °F - 28.4 °F 46% 30.45 in - NNE 5.8 mph - N/A   Clear
8:30 PM 44.6 °F 43.1 °F 30.2 °F 57% 30.45 in - ENE 3.5 mph - N/A   Clear
9:00 PM 39.2 °F 34.2 °F 33.8 °F 81% 30.45 in - East 6.9 mph - N/A   Clear
9:30 PM 41.0 °F 37.1 °F 30.2 °F 65% 30.45 in - ENE 5.8 mph - N/A   Clear
10:00 PM 38 °F - 29 °F 62% 30.48 in 31 mi ESE 4.5 mph - -  
10:00 PM 39.2 °F 35.9 °F 30.2 °F 70% 30.45 in - ESE 4.6 mph - N/A   Clear
10:30 PM 39.2 °F 35.0 °F 30.2 °F 70% 30.45 in - East 5.8 mph - N/A   Clear
11:00 PM 44.6 °F 41.4 °F 28.4 °F 53% 30.45 in - NE 5.8 mph - N/A   Clear
11:30 PM 42.8 °F 39.3 °F 28.4 °F 57% 30.45 in - NE 5.8 mph - N/A   Clear